Weather History for KBAD - February, 2013

Change the Weather History Date:

Tuesday, February 26, 2013

  Actual Average Record
Temperature  
Mean Temperature 50 °F -  
Max Temperature 56 °F 59 °F 78 °F (2009)
Min Temperature 39 °F 41 °F 28 °F (2002)
Degree Days  
Heating Degree Days 16    
Moisture  
Dew Point 32 °F    
Average Humidity 56    
Maximum Humidity 79    
Minimum Humidity 40    
Precipitation  
Precipitation 0.00 in - - ()
Sea Level Pressure  
Sea Level Pressure 29.74 in    
Wind  
Wind Speed 17 mph (WNW)    
Max Wind Speed 25 mph    
Max Gust Speed 34 mph    
Visibility 10 miles    
Events      
Averages and records for this station are not official NWS values.
T = Trace of Precipitation, MM = Missing Value Source: NWS Daily Summary

Daily Weather History Graph

Daily Weather History Graph

Search for Another Location

Airport or City:

Trip Planner

Search our weather history database for the weather conditions in past years. The results will help you decide how hot, cold, wet, or windy it might be!

Date:

Astronomy

Feb. 26, 2013 Rise Set
Actual Time 6:45 AM CST 6:09 PM CST
Civil Twilight 6:20 AM CST 6:34 PM CST
Nautical Twilight 5:52 AM CST 7:03 PM CST
Astronomical Twilight 5:23 AM CST 7:31 PM CST
Moon 7:19 PM CST (2/26) 6:54 AM CST (2/26)
Length of Visible Light 12h 13m
Length of Day
11h 24m
Full, 99% of the Moon is Illuminated
Feb 26
Full
Mar 4
Last Quarter
Mar 11
New
Mar 19
First Quarter
Mar 27
Full

Hourly Weather History & Observations

Time (CST) Temp. Windchill Dew Point Humidity Pressure Visibility Wind Dir Wind Speed Gust Speed Precip Events Conditions
12:58 AM 45.1 °F 37.1 °F 31.6 °F 59% 29.57 in 10.0 mi West 20.7 mph 31.1 mph N/A   Overcast
1:58 AM 44.6 °F 36.9 °F 31.6 °F 60% 29.58 in 10.0 mi West 18.4 mph 26.5 mph N/A   Overcast
2:28 AM 44.6 °F 38.1 °F 32.0 °F 61% 29.57 in 10.0 mi West 13.8 mph 25.3 mph N/A   Overcast
2:58 AM 44.6 °F 36.6 °F 32.5 °F 63% 29.58 in 10.0 mi West 19.6 mph 25.3 mph N/A   Overcast
3:58 AM 44.4 °F 36.4 °F 33.1 °F 64% 29.60 in 10.0 mi West 19.6 mph 25.3 mph N/A   Overcast
4:58 AM 43.9 °F 35.4 °F 31.5 °F 62% 29.60 in 10.0 mi WNW 20.7 mph 31.1 mph N/A   Overcast
5:13 AM 44.6 °F 35.9 °F 32.0 °F 61% 29.59 in 10.0 mi West 23.0 mph 26.5 mph N/A   Overcast
5:58 AM 44.1 °F 35.7 °F 30.7 °F 59% 29.63 in 10.0 mi West 20.7 mph 29.9 mph N/A   Overcast
6:58 AM 43.9 °F 35.4 °F 30.4 °F 59% 29.66 in 10.0 mi WNW 20.7 mph 34.5 mph N/A   Overcast
7:58 AM 43.9 °F 36.2 °F 30.6 °F 59% 29.70 in 10.0 mi WNW 17.3 mph 27.6 mph N/A   Overcast
8:58 AM 44.2 °F 35.2 °F 30.7 °F 59% 29.74 in 8.0 mi WNW 24.2 mph 32.2 mph N/A   Overcast
9:58 AM 45.0 °F 36.0 °F 30.9 °F 58% 29.76 in 10.0 mi WNW 25.3 mph 31.1 mph N/A   Overcast
10:58 AM 46.6 °F - 30.7 °F 54% 29.80 in 10.0 mi WNW 18.4 mph 24.2 mph N/A   Overcast
11:55 AM 50.4 °F - 31.1 °F 48% 29.79 in 10.0 mi WNW 17.3 mph 23.0 mph N/A   Mostly Cloudy
12:55 PM 53.8 °F - 32.0 °F 44% 29.78 in 10.0 mi West 20.7 mph 29.9 mph N/A   Mostly Cloudy
1:58 PM 56.5 °F - 32.2 °F 40% 29.79 in 10.0 mi NW 20.7 mph 28.8 mph N/A   Scattered Clouds
2:58 PM 56.7 °F - 33.1 °F 41% 29.80 in 10.0 mi NW 18.4 mph - N/A   Partly Cloudy
3:58 PM 55.8 °F - 33.4 °F 43% 29.81 in 10.0 mi NW 16.1 mph - N/A   Clear
4:58 PM 55.4 °F - 33.1 °F 43% 29.82 in 10.0 mi WNW 10.4 mph - N/A   Clear
5:58 PM 53.8 °F - 32.2 °F 44% 29.83 in 10.0 mi NW 10.4 mph - N/A   Clear
6:58 PM 51.3 °F - 32.7 °F 49% 29.85 in 10.0 mi WNW 3.5 mph - N/A   Clear
7:58 PM 46.8 °F - 33.4 °F 60% 29.87 in 10.0 mi Calm Calm - N/A   Clear
8:58 PM 45.1 °F - 33.4 °F 64% 29.88 in 10.0 mi SW 1.2 mph - N/A   Clear
9:58 PM 46.4 °F 45.2 °F 34.3 °F 63% 29.91 in 10.0 mi Variable 3.5 mph - N/A   Clear
10:58 PM 45.1 °F - 34.2 °F 65% 29.93 in 10.0 mi Calm Calm - N/A   Clear
11:58 PM 39.4 °F 37.2 °F 33.3 °F 79% 29.92 in 10.0 mi South 3.5 mph - N/A   Clear